Regional Weather Roundup
Issued by NWS

Home | Current Version | Previous Version | Graphics & Text | Print | Product List | Glossary On
Versions: 1 2 3 4 5 6 7 8 9 10 11 12 13 14 15 16 17 18 19 20 21 22 23 24 25 26 27 28 29 30 31 32 33 34 35 36 37 38 39 40 41 42 43 44 45 46 47 48 49 50
000
ASUS43 KBIS 030620
RWRND

NORTH DAKOTA REGIONAL WEATHER ROUNDUP
NATIONAL WEATHER SERVICE BISMARCK ND
100 AM CDT WED SEP 03 2014

NOTE: "FAIR" INDICATES FEW OR NO CLOUDS BELOW 12,000 FEET WITH NO
SIGNIFICANT WEATHER AND/OR OBSTRUCTIONS TO VISIBILITY.


NDZ001>003-009>011-017-030700-
NORTHWEST NORTH DAKOTA

CITY           SKY/WX    TMP DP  RH WIND       PRES   REMARKS
WILLISTON      CLEAR     52  46  80 CALM      29.72F
6HR MIN TEMP:  50; 6HR MAX TEMP:  76;

MINOT          FAIR      53  49  86 S3        29.74F
MINOT AFB      FAIR      50  49  97 SW3       29.73F
$$

NDZ018>021-031>035-040>046-030700-
SOUTHWEST NORTH DAKOTA

CITY           SKY/WX    TMP DP  RH WIND       PRES   REMARKS
BISMARCK       CLEAR     54  51  90 CALM      29.77S
6HR MIN TEMP:  52; 6HR MAX TEMP:  76;

DICKINSON      PTCLDY    51  44  77 SE3       29.75F
GARRISON         N/A     56  51  84 CALM      29.75S
6HR MIN TEMP:  53; 6HR MAX TEMP:  73;

HETTINGER ARPT CLEAR     52  44  74 CALM      29.77F
$$

NDZ004>008-012>016-024-026-027-054-030700-
NORTHEAST NORTH DAKOTA

CITY           SKY/WX    TMP DP  RH WIND       PRES   REMARKS
GRAND FORKS    FAIR      57  52  83 W5        29.73R
GRND FRKS AFB  FAIR      55  54  95 W3        29.74R
DEVILS LAKE    FAIR      55  48  76 CALM      29.74S
$$

NDZ022-023-025-028>030-036>039-047>053-030700-
SOUTHEAST NORTH DAKOTA

CITY           SKY/WX    TMP DP  RH WIND       PRES   REMARKS
FARGO          FAIR      63  54  72 S7        29.74F
6HR MIN TEMP:  63; 6HR MAX TEMP:  77;

JAMESTOWN      FAIR      54  51  90 CALM      29.76S
$$




USA.gov is the U.S. government's official web portal to all federal, state and local government web resources and services.